Location: Berg
(47.2344°N, 9.5296°E)
Time: 22:35:36
(UTC+00:00)

Meteor 1-21 Rocket - Pass Details

Date: 24 January 2021
Orbit: 834 x 906 km, 81.2° (Epoch: 04 March)

Event Time Altitude Azimuth Distance (km) Brightness Sun altitude
Rises 17:46:24 0° 192° (SSW) 3,369 7.6 -15.9°
Reaches altitude 10° 17:48:47 10° 193° (SSW) 2,439 6.9 -16.3°
Maximum altitude 17:54:19 82° 281° (WNW) 852 4.2 -17.2°
Drops below altitude 10° 17:59:56 10° 10° (N) 2,475 6.4 -18.1°
Sets 18:02:22 0° 11° (N) 3,423 7.2 -18.6°
